• Em Portugal
  • Lista de países
  • Para 7 dias
  • Temperatura da água
  • Mapas de satélite
  • Mapa do tempo
  • Widgets de tempo
  • user-avatar
    Iniciar Sessão

    Previsão horária em Sharan

    Hoje, 25 Setembro, Segunda-feira

    Tempo Temperatura Precipitação Vento Pressão Humidade
    00:00 +18°C° 0 mm 1 m/s 587 mmHg 19%
    01:00 +18°C° 0 mm 1 m/s 587 mmHg 20%
    02:00 +16°C° 0 mm 1 m/s 587 mmHg 20%
    03:00 +15°C° 0 mm 1 m/s 586 mmHg 21%
    04:00 +15°C° 0 mm 1 m/s 586 mmHg 21%
    05:00 +14°C° 0 mm 1 m/s 586 mmHg 25%
    06:00 +15°C° 0 mm 1 m/s 587 mmHg 24%
    07:00 +16°C° 0 mm 2 m/s 587 mmHg 22%
    08:00 +17°C° 0 mm 2 m/s 588 mmHg 20%
    09:00 +19°C° 0 mm 2 m/s 589 mmHg 18%
    10:00 +20°C° 0 mm 2 m/s 589 mmHg 16%
    11:00 +23°C° 0 mm 2 m/s 590 mmHg 13%
    12:00 +24°C° 0 mm 2 m/s 590 mmHg 12%
    13:00 +25°C° 0 mm 2 m/s 590 mmHg 11%
    14:00 +25°C° 0 mm 2 m/s 589 mmHg 10%
    15:00 +25°C° 0 mm 2 m/s 589 mmHg 10%
    16:00 +25°C° 0 mm 2 m/s 589 mmHg 10%
    17:00 +26°C° 0 mm 2 m/s 589 mmHg 9%
    18:00 +24°C° 0 mm 2 m/s 589 mmHg 11%
    19:00 +23°C° 0 mm 2 m/s 588 mmHg 12%
    20:00 +20°C° 0 mm 2 m/s 588 mmHg 13%
    21:00 +21°C° 0 mm 1 m/s 588 mmHg 14%
    22:00 +20°C° 0 mm 1 m/s 588 mmHg 15%
    23:00 +19°C° 0 mm 1 m/s 588 mmHg 16%

    Amanhã, 26 Setembro, Terça-feira

    Tempo Temperatura Precipitação Vento Pressão Humidade
    00:00 +18°C° 0 mm 1 m/s 587 mmHg 16%
    01:00 +16°C° 0 mm 1 m/s 587 mmHg 16%
    02:00 +16°C° 0 mm 2 m/s 587 mmHg 16%
    03:00 +15°C° 0 mm 2 m/s 587 mmHg 16%
    04:00 +15°C° 0 mm 2 m/s 586 mmHg 16%
    05:00 +14°C° 0 mm 2 m/s 586 mmHg 16%
    06:00 +15°C° 0 mm 2 m/s 587 mmHg 15%
    07:00 +16°C° 0 mm 2 m/s 588 mmHg 14%
    08:00 +17°C° 0 mm 2 m/s 588 mmHg 13%
    09:00 +19°C° 0 mm 2 m/s 589 mmHg 12%
    10:00 +20°C° 0 mm 2 m/s 590 mmHg 11%
    11:00 +23°C° 0 mm 1 m/s 590 mmHg 10%
    12:00 +24°C° 0 mm 2 m/s 590 mmHg 9%
    13:00 +25°C° 0 mm 2 m/s 590 mmHg 9%
    14:00 +25°C° 0 mm 2 m/s 590 mmHg 8%
    15:00 +25°C° 0 mm 2 m/s 590 mmHg 8%
    16:00 +26°C° 0 mm 2 m/s 590 mmHg 8%
    17:00 +26°C° 0 mm 3 m/s 589 mmHg 8%
    18:00 +24°C° 0 mm 2 m/s 589 mmHg 9%
    19:00 +23°C° 0 mm 2 m/s 589 mmHg 11%
    20:00 +21°C° 0 mm 1 m/s 588 mmHg 12%
    21:00 +20°C° 0 mm 1 m/s 588 mmHg 14%
    22:00 +19°C° 0 mm 1 m/s 588 mmHg 16%
    23:00 +19°C° 0 mm 1 m/s 588 mmHg 17%

    Depois de amanhã, 27 Setembro, Quarta-feira

    Tempo Temperatura Precipitação Vento Pressão Humidade
    00:00 +18°C° 0 mm 1 m/s 588 mmHg 18%
    01:00 +16°C° 0 mm 1 m/s 587 mmHg 18%
    02:00 +16°C° 0 mm 1 m/s 587 mmHg 18%
    03:00 +15°C° 0 mm 1 m/s 587 mmHg 18%
    04:00 +15°C° 0 mm 1 m/s 587 mmHg 17%
    05:00 +14°C° 0 mm 1 m/s 586 mmHg 17%
    06:00 +15°C° 0 mm 1 m/s 587 mmHg 15%
    07:00 +18°C° 0 mm 1 m/s 588 mmHg 13%
    08:00 +19°C° 0 mm 1 m/s 589 mmHg 12%
    09:00 +20°C° 0 mm 1 m/s 590 mmHg 10%
    10:00 +22°C° 0 mm 1 m/s 590 mmHg 9%
    11:00 +23°C° 0 mm 1 m/s 591 mmHg 8%
    12:00 +24°C° 0 mm 1 m/s 591 mmHg 8%
    13:00 +25°C° 0 mm 2 m/s 591 mmHg 8%
    14:00 +26°C° 0 mm 2 m/s 591 mmHg 7%
    15:00 +26°C° 0 mm 2 m/s 591 mmHg 7%
    16:00 +26°C° 0 mm 2 m/s 590 mmHg 7%
    17:00 +26°C° 0 mm 2 m/s 590 mmHg 7%
    18:00 +25°C° 0 mm 2 m/s 590 mmHg 8%
    19:00 +23°C° 0 mm 2 m/s 590 mmHg 9%
    20:00 +21°C° 0 mm 2 m/s 589 mmHg 11%
    21:00 +21°C° 0 mm 1 m/s 589 mmHg 11%
    22:00 +20°C° 0 mm 1 m/s 589 mmHg 12%
    23:00 +19°C° 0 mm 1 m/s 589 mmHg 13%

    28 Setembro, Quinta-feira

    Tempo Temperatura Precipitação Vento Pressão Humidade
    00:00 +18°C° 0 mm 1 m/s 588 mmHg 13%
    01:00 +18°C° 0 mm 1 m/s 588 mmHg 13%
    02:00 +16°C° 0 mm 1 m/s 587 mmHg 13%
    03:00 +16°C° 0 mm 2 m/s 587 mmHg 14%
    04:00 +15°C° 0 mm 2 m/s 587 mmHg 14%
    05:00 +15°C° 0 mm 2 m/s 587 mmHg 15%
    06:00 +16°C° 0 mm 2 m/s 587 mmHg 14%
    07:00 +17°C° 0 mm 2 m/s 588 mmHg 14%
    08:00 +18°C° 0 mm 2 m/s 589 mmHg 13%
    09:00 +20°C° 0 mm 2 m/s 590 mmHg 12%
    10:00 +22°C° 0 mm 1 m/s 590 mmHg 11%
    11:00 +24°C° 0 mm 1 m/s 591 mmHg 10%
    12:00 +25°C° 0 mm 2 m/s 590 mmHg 9%
    13:00 +26°C° 0 mm 2 m/s 590 mmHg 8%
    14:00 +27°C° 0 mm 3 m/s 590 mmHg 7%
    15:00 +27°C° 0 mm 3 m/s 590 mmHg 7%
    16:00 +27°C° 0 mm 3 m/s 590 mmHg 7%
    17:00 +27°C° 0 mm 4 m/s 589 mmHg 7%
    18:00 +25°C° 0 mm 3 m/s 589 mmHg 8%
    19:00 +24°C° 0 mm 3 m/s 589 mmHg 10%
    20:00 +21°C° 0 mm 3 m/s 589 mmHg 11%
    21:00 +20°C° 0 mm 3 m/s 589 mmHg 12%
    22:00 +19°C° 0 mm 2 m/s 588 mmHg 14%
    23:00 +18°C° 0 mm 2 m/s 588 mmHg 15%

    29 Setembro, Sexta-feira

    Tempo Temperatura Precipitação Vento Pressão Humidade
    00:00 +18°C° 0 mm 2 m/s 588 mmHg 15%
    01:00 +18°C° 0 mm 1 m/s 587 mmHg 16%
    02:00 +16°C° 0 mm 1 m/s 587 mmHg 17%
    03:00 +16°C° 0 mm 1 m/s 586 mmHg 17%
    04:00 +15°C° 0 mm 1 m/s 586 mmHg 17%
    05:00 +15°C° 0 mm 1 m/s 586 mmHg 17%
    06:00 +16°C° 0 mm 2 m/s 587 mmHg 16%
    07:00 +17°C° 0 mm 2 m/s 588 mmHg 14%
    08:00 +18°C° 0 mm 2 m/s 589 mmHg 13%
    09:00 +20°C° 0 mm 2 m/s 589 mmHg 12%
    10:00 +23°C° 0 mm 2 m/s 590 mmHg 11%
    11:00 +24°C° 0 mm 3 m/s 591 mmHg 9%
    12:00 +25°C° 0 mm 2 m/s 590 mmHg 9%
    13:00 +26°C° 0 mm 2 m/s 590 mmHg 8%
    14:00 +27°C° 0 mm 2 m/s 590 mmHg 8%
    15:00 +27°C° 0 mm 2 m/s 590 mmHg 8%
    16:00 +26°C° 0 mm 3 m/s 590 mmHg 8%
    17:00 +26°C° 0 mm 3 m/s 589 mmHg 8%
    18:00 +25°C° 0 mm 2 m/s 589 mmHg 9%
    19:00 +23°C° 0 mm 2 m/s 589 mmHg 10%
    20:00 +21°C° 0 mm 2 m/s 589 mmHg 12%
    21:00 +21°C° 0 mm 1 m/s 589 mmHg 12%
    22:00 +20°C° 0 mm 1 m/s 589 mmHg 13%
    23:00 +19°C° 0 mm 1 m/s 589 mmHg 14%

    30 Setembro, Sábado

    Tempo Temperatura Precipitação Vento Pressão Humidade
    00:00 +19°C° 0 mm 1 m/s 588 mmHg 14%
    01:00 +18°C° 0 mm 1 m/s 588 mmHg 15%
    02:00 +16°C° 0 mm 1 m/s 588 mmHg 15%
    03:00 +16°C° 0 mm 2 m/s 588 mmHg 15%
    04:00 +15°C° 0 mm 2 m/s 587 mmHg 16%
    05:00 +15°C° 0 mm 2 m/s 587 mmHg 16%
    06:00 +16°C° 0 mm 2 m/s 588 mmHg 15%
    07:00 +17°C° 0 mm 2 m/s 589 mmHg 15%
    08:00 +18°C° 0 mm 2 m/s 590 mmHg 14%
    09:00 +20°C° 0 mm 2 m/s 591 mmHg 13%
    10:00 +21°C° 0 mm 2 m/s 591 mmHg 11%
    11:00 +24°C° 0 mm 1 m/s 592 mmHg 10%
    12:00 +25°C° 0 mm 2 m/s 592 mmHg 9%
    13:00 +26°C° 0 mm 2 m/s 592 mmHg 8%
    14:00 +27°C° 0 mm 3 m/s 591 mmHg 6%
    15:00 +27°C° 0 mm 3 m/s 591 mmHg 6%
    16:00 +27°C° 0 mm 3 m/s 591 mmHg 6%
    17:00 +27°C° 0 mm 3 m/s 591 mmHg 6%
    18:00 +25°C° 0 mm 3 m/s 591 mmHg 8%
    19:00 +23°C° 0 mm 2 m/s 590 mmHg 9%
    20:00 +21°C° 0 mm 2 m/s 590 mmHg 10%
    21:00 +20°C° 0 mm 2 m/s 590 mmHg 11%
    22:00 +19°C° 0 mm 2 m/s 589 mmHg 12%
    23:00 +19°C° 0 mm 1 m/s 589 mmHg 12%
    Mostrar mais